weather.gov     
National Weather Service

Regional Weather Roundup
NWS Homepage
This page is being discontinued on March 12, 2014.
The same data is available at this site. Please update your bookmarks.
Thank you, and we apologize for the inconvenience.
Please send an email to SR-SRH.Webmaster@noaa.gov with any concerns.


Current Version
Previous Version:    01  02  03  04  05  06  07  08  09  10  11  12  13  14  15  16  17  18  19  20  21  22  23  24  25  26  27  28  29  30  
   31  32  33  34  35  36  37  38  39  40  41  42  43  44  45  46  47  48  49  50  51  52  53  54  55  56  57  58  59  60  
[Printable]
110
ASUS44 KSJT 291610
RWRSJT
WEST CENTRAL TEXAS REGIONAL WEATHER ROUNDUP
NATIONAL WEATHER SERVICE SAN ANGELO TX
1000 AM CST THU JAN 29 2015

NOTE: "FAIR" INDICATES FEW OR NO CLOUDS BELOW 12,000 FEET WITH NO
SIGNIFICANT WEATHER AND/OR OBSTRUCTIONS TO VISIBILITY.

TXZ049-054-064>066-071>073-076>078-098-099-113-114-127-128-139-140-
154-155-168>170-291700
...LOCATIONS ACROSS WEST CENTRAL TEXAS...

CITY           SKY/WX    TMP DP  RH WIND       PRES   REMARKS
SAN ANGELO     PTSUNNY   58  39  49 NE13      30.29R
ABILENE        MOSUNNY   54  37  52 N14       30.33R
DYESS AFB      MOSUNNY   56  37  49 N12G20    30.33R
JUNCTION       SUNNY     55  43  63 SE3       30.27R
SWEETWATER     MOSUNNY   55  35  45 N18G30    30.37R
BROWNWOOD      SUNNY     63  36  36 NE8G18    30.28R
COLEMAN        MOSUNNY   60  39  44 NE20G25   30.29R
SONORA         PTSUNNY   61  46  59 N7        30.31R
OZONA          FAIR      59  43  55 NE14      30.30R
BRADY          SUNNY     63  37  39 N13       30.27R
$$

TEXAS PANHANDLE/OKLAHOMA PANHANDLE

CITY           SKY/WX    TMP DP  RH WIND       PRES   REMARKS
AMARILLO       CLOUDY    44  30  57 N22G30    30.46R WCI  35
BORGER         CLOUDY    44  29  55 N18G24    30.49R WCI  36
CANADIAN       CLOUDY    44  34  67 N20G29    30.48R WCI  36
DALHART        CLOUDY    44  26  49 N21G29    30.49R WCI  36
DUMAS          CLOUDY    41  26  55 N15       30.48R WCI  33
GUYMON         NOT AVBL
HEREFORD       CLOUDY    47  32  55 NE22G29   30.46R WCI  39
PAMPA          CLOUDY    41  32  70 N17       30.47R WCI  32
PERRYTON         N/A     40  31  69 N22G28    30.48R WCI  30
$$

SOUTHERN PANHANDLE/SOUTH PLAINS/ROLLING PLAINS

CITY           SKY/WX    TMP DP  RH WIND       PRES   REMARKS
LUBBOCK        CLOUDY    47  34  60 NE16      30.39R
SNYDER         MOSUNNY  N/A N/A N/A NE22G30   30.34R
CHILDRESS      CLOUDY   N/A N/A N/A NE16G25   30.41R
SEMINOLE       PTSUNNY   50  35  55 NE16      30.37R
$$

PERMIAN BASIN

CITY           SKY/WX    TMP DP  RH WIND       PRES   REMARKS
MIDLAND        PTSUNNY   55  35  47 NE28G35   30.32R
ODESSA         MOSUNNY   54  35  48 NE24G33   30.32R
WINK           MOSUNNY   57  32  38 NE18G29   30.30R
$$

FAR WEST/SOUTHWEST MOUNTAINS/TRANS PECOS

CITY           SKY/WX    TMP DP  RH WIND       PRES   REMARKS
ALPINE         SUNNY     60  45  57 N6        30.37R
DRYDEN           N/A     61  43  51 NE7       30.21R
EL PASO        CLOUDY    52  37  56 N10       30.28R
FORT STOCKTON  SUNNY     54  42  64 NW16      30.30R
GUADALUPE PASS MOSUNNY   55  33  43 E26       30.33R
MARFA          SUNNY     59  39  47 NE16      30.32R
PECOS          SUNNY     54  39  57 N12       30.32R
$$

DALLAS/FORT WORTH METROPLEX

CITY           SKY/WX    TMP DP  RH WIND       PRES   REMARKS
DFW AIRPORT    MOSUNNY   63  36  36 N17       30.26R
FTW MEACHAM    SUNNY     63  37  38 N21G26    30.27R
DAL-EXECUTIVE  SUNNY     66  34  30 N17G24    30.25R
GRAND PRAIRIE  SUNNY     63  37  39 N23G35    30.28R
ADDISON        NOT AVBL
MESQUITE       SUNNY     61  39  44 N13G18    30.26R
LANCASTER      SUNNY     62  37  39 N15G22    30.26R
$$

NORTH CENTRAL TEXAS

CITY           SKY/WX    TMP DP  RH WIND       PRES   REMARKS
SHRMAN/DENISON SUNNY     60  39  46 N15       30.30R
GAINESVILLE    MOSUNNY   58  35  41 N18       30.32R
BRIDGEPORT     MOSUNNY   58  39  50 N9        30.33R
DENTON         SUNNY     61  36  39 N22       30.28R
WAXAHACHIE     SUNNY     63  41  44 N14       30.26R
GRANBURY       SUNNY     65  36  34 N16G22    30.30R
$$

WESTERN NORTH TEXAS

CITY           SKY/WX    TMP DP  RH WIND       PRES   REMARKS
WICHITA FALLS  PTSUNNY   55  37  50 N22       30.36R
VERNON         CLOUDY    55  31  41 N21       30.40R
BRECKENRIDGE   MOSUNNY   58  36  42 N14G21    30.33R
COMANCHE       SUNNY     61  40  44 NE14      30.28R
$$

CENTRAL AND SOUTH CENTRAL TEXAS

CITY           SKY/WX    TMP DP  RH WIND       PRES   REMARKS
AUSTIN/BERGSTM CLOUDY    62  58  86 W8        30.28R
WACO           SUNNY     63  45  51 NW12      30.24R
HILLSBORO      SUNNY     63  42  46 N17       30.25R
TEMPLE         SUNNY     61  50  67 S12       30.22R
KILLEEN-GRAY   SUNNY     66  46  49 SW6       30.24R
FORT HOOD      SUNNY     66  47  49 SW7       30.23R
GEORGETOWN     SUNNY     63  54  72 SW5       30.26R
LAGO VISTA     PTSUNNY   63  54  72 SW3       30.28R
SAN MARCOS     CLOUDY    61  57  88 SW10      30.26R FOG
NEW BRAUNFELS  CLOUDY    60  58  92 W9        30.25R
RANDOLPH AFB   CLOUDY    63  57  82 SW7       30.26R
SAN ANTONIO    PTSUNNY   62  55  77 SW8       30.25R
STINSON        PTSUNNY   61  57  87 SW3       30.23R
PLEASANTON     NOT AVBL
LA GRANGE      CLOUDY    64  62  91 SW6       30.25R
GIDDINGS       CLOUDY    61  59  95 SW6       30.29R
$$

EAST TEXAS

CITY           SKY/WX    TMP DP  RH WIND       PRES   REMARKS
PARIS          PTSUNNY   61  37  41 N17G26    30.24R
CLARKSVILLE    NOT AVBL
TYLER          SUNNY     62  53  72 W12       30.23R
LONGVIEW       SUNNY     63  54  72 W12       30.21R
PALESTINE      PTSUNNY   63  57  82 S8        30.24R
NACOGDOCHES    MOSUNNY   63  54  72 W8        30.24R
$$

TEXAS HILL COUNTRY AND EDWARDS PLATEAU

CITY           SKY/WX    TMP DP  RH WIND       PRES   REMARKS
LLANO          MOSUNNY   59  46  63 SW8       30.29S
HORSESHOE BAY  CLOUDY    62  46  55 CALM      30.27R
KERRVILLE      CLOUDY    51  50  95 W3        30.26R FOG
FREDERICKSBRG  MOSUNNY   60  51  71 NW5       30.26R
ROCKSPRINGS    NOT AVBL
HONDO          CLOUDY    57  56  96 SE3       30.26R FOG
UVALDE         CLOUDY    56  55  95 E6        30.24R FOG
DEL RIO        MOSUNNY   60  49  66 E5        30.21R
$$

SOUTHEAST TEXAS

CITY           SKY/WX    TMP DP  RH WIND       PRES   REMARKS
COLLEGE STN    CLOUDY    62  58  86 NW8       30.28R
CALDWELL       PTSUNNY   63  61  94 W7        30.32R
CROCKETT       MOSUNNY   64  61  88 SW10      30.27R
BRENHAM        CLOUDY    65  62  91 SW6       30.27R
HUNTSVILLE     CLOUDY    62  57  83 W10       30.27R
CONROE         CLOUDY    60  58  92 SW6       30.26R
HOUSTON BUSH   CLOUDY    63  63 100 CALM      30.26R FOG
HOUSTON HOBBY  CLOUDY    60  60 100 W3        30.26R
PERLAND        MOSUNNY   63  60  90 CALM      30.27R
WHARTON        FOG       61  60  98 CALM      30.26R VSB 1/4
$$

THE UPPER TEXAS COAST

CITY           SKY/WX    TMP DP  RH WIND       PRES   REMARKS
ORANGE         CLOUDY    58  58 100 CALM      30.28R FOG
PORT ARTHUR    MOSUNNY   62  60  93 W3        30.26R
GALVESTON      SUNNY     66  63  90 S5        30.26R
ANGLETON       SUNNY     65  62  90 S5        30.25R
BAY CITY       MOSUNNY   63  63 100 CALM      30.25R
$$

TEXAS COASTAL BEND, RIO GRANDE PLAINS DEEP SOUTH TEXAS

CITY           SKY/WX    TMP DP  RH WIND       PRES   REMARKS
VICTORIA       CLOUDY    62  61  96 E3        30.25R FOG
BEEVILLE       FOG       59  59 100 SW3       30.23R VSB 1/4
ROCKPORT       SUNNY     69  62  78 S7        30.23R
PORT ARANSAS   SUNNY     67  64  89 S7        30.22R
PORT LAVACA    SUNNY     64  64 100 S5        30.24R
CORPUS CHRISTI MOSUNNY   68  61  78 S14       30.22R
KINGSVILLE NAS PTSUNNY   60  60 100 SW3       30.22R
COTULLA        MOSUNNY   64  60  87 S7        30.21S
LAREDO         NOT AVBL
BROWNSVILLE    SUNNY     72  63  73 SE14      30.22R
PORT ISABEL    SUNNY     72  62  71 S14       30.21R
HEBBRONVILLE   PTSUNNY   64  60  86 S9        30.22R
MCALLEN        SUNNY     66  62  87 SE10      30.22R
WESLACO        MOSUNNY   66  63  88 S7        30.21R
FALFURRIAS     CLOUDY    62  61  96 S6        30.22R
EDINBURG       PTSUNNY   65  63  91 SE3       30.22R
$$




U.S. Dept. of Commerce
NOAA National Weather Service
1325 East West Highway
Silver Spring, MD 20910
E-mail: w-nws.webmaster@noaa.gov
Page last modified: May 16, 2007
NATIONAL WEATHER SERVICE: for Safety, for Work, for Fun - FOR LIFE